USA 107 (DSP 17)

Last updated on Fri May 26 2023 00:02:44 GMT+0000 (Coordinated Universal Time)

1 23435U 94084A 23144.41306479 .00000024 00000+0 00000+0 0 9994 2 23435 14.5683 3.1022 0000930 277.8991 358.7726 0.99079527 21716
UTC large
Height (km)
Speed (km/s)
/
Latitude / Longitude
Inclination (degrees)
Orbital Period (minutes)
Azimuth
Elevation
Range (km)
Doppler Factor

Next 0 passes for location: London (51.5072 / 0.1276)

Sorry there are no passes over London.
USA 107 (DSP 17)